Flag for Germany Weather past 2 weeks in Rheinfelden (Baden), Baden-Württemberg, Germany

Now
50 °F

Passing clouds.


Feels Like: 45 °F
Forecast: 43 / 49 °F
Wind: 15 mph from West

Location: Bale-Mulhouse

Current Time: Oct 21, 2014 at 10:36:37 PM

Latest Report: Oct 21, 2014 at 10:00 PM


Visibility: N/A

Pressure: 30.01 "Hg

Humidity: 76%

Dew point: 43 °F

Location of Rheinfelden (Baden)Location

Historic Weather in Rheinfelden (Baden) — Graph

°F

Rheinfelden (Baden) temperature yesterday

Maximum temperature yesterday: 73 °F (at 2:30 PM)
Minimum temperature yesterday: 54 °F (at 7:00 AM)
Average temperature yesterday: 63 °F

Past Weeks' High & Low Weather Summary

 TemperatureHumidityPressure
High75 °F (Oct 18, 4:30 PM)100% (Oct 8, 12:00 AM)30.21 "Hg (Oct 8, 12:00 AM)
Low46 °F (Oct 18, 3:30 AM)50% (Oct 14, 3:30 PM)29.74 "Hg (Oct 13, 5:00 AM)
Average60 °F87%29.94 "Hg
* Reported Oct 6 9:00 PM — Oct 21 9:30 PM, Rheinfelden (Baden), Weather by CustomWeather, © 2014

Note: Actual official high and low records may vary slightly from our data, if they occured in-between our weather recording intervals... More about our weather records

Advertising

Rheinfelden (Baden) weather history for previous 24 hours

 ConditionsComfort  
Time TempWeatherWind HumidityBarometerVisibility
9:30 PM
Oct 21
50 °FPassing clouds.14 mph82%29.98 "HgN/A
9:00 PM52 °FPartly cloudy.14 mph77%29.95 "HgN/A
8:30 PM52 °FPartly cloudy.15 mph82%29.92 "HgN/A
8:00 PM52 °FPassing clouds.13 mph88%29.89 "HgN/A
7:30 PM54 °FRain showers. Broken clouds.26 mph94%29.86 "Hg3 mi
7:00 PM59 °FScattered showers. Broken clouds.21 mph82%29.77 "HgN/A
6:30 PM57 °FThunderstorms. Broken clouds.18 mph88%29.77 "Hg2 mi
6:00 PM64 °FSprinkles. Scattered clouds.21 mph64%29.74 "HgN/A
5:30 PM64 °FScattered showers. Scattered clouds.18 mph64%29.77 "HgN/A
5:00 PM64 °FScattered showers. Partly sunny.14 mph64%29.80 "HgN/A
4:30 PM64 °FScattered showers. Partly sunny.18 mph64%29.83 "HgN/A
4:00 PM66 °FScattered showers. Partly sunny.17 mph60%29.83 "HgN/A
3:30 PM68 °FScattered clouds.21 mph53%29.86 "HgN/A
3:00 PM66 °FPartly sunny.16 mph52%29.89 "HgN/A
2:30 PM66 °FScattered clouds.17 mph56%29.89 "HgN/A
2:00 PM66 °FScattered clouds.18 mph56%29.92 "HgN/A
1:30 PM66 °FPartly sunny.23 mph56%29.95 "HgN/A
1:00 PM64 °FPartly sunny.12 mph73%29.95 "HgN/A
12:30 PM64 °FScattered showers. Broken clouds.10 mph73%29.95 "HgN/A
12:00 PM66 °FScattered showers. Scattered clouds.12 mph68%29.98 "HgN/A
11:30 AM63 °FScattered clouds.10 mph77%29.98 "HgN/A
11:00 AM64 °FScattered clouds.7 mph78%29.98 "HgN/A
10:30 AM63 °FScattered clouds.7 mph83%29.98 "HgN/A
10:00 AM61 °FBroken clouds.5 mph88%29.98 "HgN/A
9:30 AM61 °FBroken clouds.6 mph88%30.01 "HgN/A
9:00 AM59 °FPartly sunny.6 mph94%29.98 "HgN/A
8:30 AM59 °FPassing clouds.6 mph94%30.01 "HgN/A
8:00 AM59 °FPassing clouds.7 mph88%29.98 "HgN/A
7:30 AM59 °FPassing clouds.9 mph88%29.98 "HgN/A
7:00 AM59 °FPassing clouds.9 mph94%29.98 "HgN/A
6:30 AM59 °FLight rain. Passing clouds.8 mph94%29.98 "Hg6 mi
6:00 AM59 °FPassing clouds.7 mph88%29.98 "HgN/A
5:00 AM59 °FPassing clouds.7 mph88%30.01 "HgN/A
4:30 AM59 °FPassing clouds.7 mph94%30.01 "HgN/A
4:00 AM59 °FMostly cloudy.7 mph94%30.01 "HgN/A
3:30 AM59 °FPassing clouds.3 mph94%30.04 "HgN/A
3:00 AM61 °FPassing clouds.5 mph94%30.04 "HgN/A
2:30 AM59 °FLight rain. Partly cloudy.1 mph100%30.04 "Hg4 mi
2:00 AM61 °FPartly cloudy.2 mph94%30.04 "HgN/A
1:30 AM61 °FLight rain. Mostly cloudy.5 mph94%30.04 "HgN/A
1:00 AM59 °FMostly cloudy.No wind100%30.04 "HgN/A
12:30 AM61 °FClear.No wind94%30.04 "HgN/A
12:00 AM61 °FPartly cloudy.3 mph94%30.04 "HgN/A
11:30 PM
Oct 20
61 °FPartly cloudy.5 mph94%30.04 "HgN/A
11:00 PM61 °FLight rain. Partly cloudy.3 mph94%30.07 "Hg4 mi
10:30 PM63 °FLight rain. Partly cloudy.3 mph94%30.07 "Hg4 mi
10:05 PM63 °FLight rain. Partly cloudy.6 mph94%30.07 "Hg1 mi
Weather by CustomWeather, © 2014

See weather overviewHow to use our weather pages